Location: Henau
(47.4548°N, 9.1164°E)
Time: 08:18:19
(UTC+00:00)

COSMO-SKYMED 1 - Pass Details

Date: 03 March 2021
Orbit: 621 x 623 km, 97.9° (Epoch: 11 April)

Event Time Altitude Azimuth Distance (km) Brightness Sun altitude
Rises 17:44:04 0° 12° (NNE) 2,916 5.9 -6.3°
Reaches altitude 10° 17:46:17 10° 11° (N) 2,004 5.1 -6.6°
Maximum altitude 17:50:38 77° 286° (WNW) 644 2.8 -7.4°
Drops below altitude 10° 17:54:57 10° 200° (SSW) 1,987 5.4 -8.1°
Sets 17:57:08 0° 199° (SSW) 2,888 6.3 -8.5°
